Champaign, IL

12:48 PM CDT on October 18, 2017 (GMT -0500)
Univ Of Illinois-Willard

Weather History for KCMI - October, 2013

Change the Weather History Date:

Sunday, October 27, 2013

  Actual Average Record
Temperature  
Mean Temperature 42 °F 50 °F  
Max Temperature 57 °F 61 °F 78 °F (2000)
Min Temperature 26 °F 39 °F 6 °F (2005)
Degree Days  
Heating Degree Days 23 15  
Month to date heating degree days 299 304  
Since 1 July heating degree days 342 396  
Cooling Degree Days 0 0  
Month to date cooling degree days 45 14  
Year to date cooling degree days 1067 939  
Moisture  
Dew Point 28 °F    
Average Humidity 61    
Maximum Humidity 92    
Minimum Humidity 30    
Precipitation  
Precipitation 0.00 in 0.10 in 0.84 in (2015)
Month to date precipitation 2.24 2.76  
Year to date precipitation 27.00 33.32  
Sea Level Pressure  
Sea Level Pressure 30.09 in    
Wind  
Wind Speed 6 mph (WSW)    
Max Wind Speed 13 mph    
Max Gust Speed 17 mph    
Visibility 10 miles    
Events      
T = Trace of Precipitation, MM = Missing Value Source: NWS Daily Summary

Daily Weather History Graph

Daily Weather History Graph

Search for Another Location

Airport or City:

Trip Planner

Search our weather history database for the weather conditions in past years. The results will help you decide how hot, cold, wet, or windy it might be!

Date:

Astronomy

Oct. 27, 2013 Rise Set
Actual Time 7:16 AM CDT 5:56 PM CDT
Civil Twilight 6:49 AM CDT 6:24 PM CDT
Nautical Twilight 6:17 AM CDT 6:56 PM CDT
Astronomical Twilight 5:45 AM CDT 7:27 PM CDT
Moon 12:13 AM CDT (10/27) 2:05 PM CDT (10/27)
Length of Visible Light 11h 35m
Length of Day
10h 39m
Last Quarter, 43% of the Moon is Illuminated
Oct 27
Last Quarter
Nov 3
New
Nov 9
First Quarter
Nov 17
Full
Nov 25
Last Quarter

Hourly Weather History & Observations

Time (CDT) Temp. Windchill Dew Point Humidity Pressure Visibility Wind Dir Wind Speed Gust Speed Precip Events Conditions
12:53 AM 32.0 °F 26.4 °F 27.0 °F 82% 30.10 in 10.0 mi WNW 5.8 mph - N/A   Clear
1:53 AM 32.0 °F 27.5 °F 27.0 °F 82% 30.09 in 10.0 mi NW 4.6 mph - N/A   Clear
2:53 AM 32.0 °F 26.4 °F 28.0 °F 85% 30.09 in 10.0 mi NNW 5.8 mph - N/A   Clear
3:53 AM 33.1 °F 27.7 °F 28.0 °F 82% 30.08 in 10.0 mi NNW 5.8 mph - N/A   Clear
4:53 AM 28.0 °F 24.2 °F 25.0 °F 88% 30.09 in 10.0 mi WNW 3.5 mph - N/A   Clear
5:53 AM 26.1 °F - 23.0 °F 88% 30.10 in 10.0 mi Calm Calm - N/A   Clear
6:53 AM 26.1 °F 21.9 °F 24.1 °F 92% 30.12 in 10.0 mi WSW 3.5 mph - N/A   Clear
7:53 AM 28.9 °F 23.9 °F 26.1 °F 89% 30.12 in 10.0 mi SW 4.6 mph - N/A   Clear
8:53 AM 36.0 °F - 32.0 °F 86% 30.13 in 10.0 mi Calm Calm - N/A   Clear
9:53 AM 44.1 °F 42.5 °F 32.0 °F 63% 30.13 in 10.0 mi WSW 3.5 mph - N/A   Clear
10:53 AM 50.0 °F - 32.0 °F 50% 30.13 in 10.0 mi WSW 8.1 mph - N/A   Clear
11:53 AM 53.1 °F - 28.0 °F 38% 30.12 in 10.0 mi WSW 10.4 mph - N/A   Clear
12:53 PM 55.0 °F - 28.0 °F 35% 30.09 in 10.0 mi WSW 6.9 mph - N/A   Clear
1:53 PM 55.9 °F - 28.0 °F 34% 30.06 in 10.0 mi SW 9.2 mph - N/A   Clear
2:53 PM 55.9 °F - 27.0 °F 33% 30.05 in 10.0 mi Variable 5.8 mph - N/A   Clear
3:53 PM 57.0 °F - 27.0 °F 32% 30.04 in 10.0 mi SSW 10.4 mph 17.3 mph N/A   Clear
4:53 PM 55.9 °F - 27.0 °F 33% 30.05 in 10.0 mi SW 9.2 mph - N/A   Clear
5:53 PM 46.9 °F - 28.0 °F 48% 30.05 in 10.0 mi SSW 6.9 mph - N/A   Clear
6:53 PM 42.1 °F 39.2 °F 28.0 °F 58% 30.06 in 10.0 mi South 4.6 mph - N/A   Clear
7:53 PM 39.9 °F 35.8 °F 27.0 °F 60% 30.06 in 10.0 mi South 5.8 mph - N/A   Clear
8:53 PM 37.0 °F 31.6 °F 27.0 °F 67% 30.07 in 10.0 mi South 6.9 mph - N/A   Clear
9:53 PM 37.0 °F 31.6 °F 27.0 °F 67% 30.07 in 10.0 mi South 6.9 mph - N/A   Clear
10:53 PM 37.0 °F 32.4 °F 27.0 °F 67% 30.08 in 10.0 mi SSW 5.8 mph - N/A   Clear
11:53 PM 37.0 °F - 27.0 °F 67% 30.08 in 10.0 mi Calm Calm - N/A   Clear